www.pogodaiklimat.ru

Погода и климат >> Архив погоды >> Россия >> Нижегородская область >> Нижний Новгород


АРХИВ ПОГОДЫ в Нижнем Новгороде

Время (UTC), дата Ветер
(напр.,м/с)
 
Видим.   Явления Облачность Т
(С)
Тd
(С)
f
(%)
Тe
(С)
Тes
(С)
Комфортность P
(гПа)
Po
(гПа)
Тmin
(С)
Tmax
(С)
R
(мм)
R24
(мм)
S
(см)
06 17.02 З 2-6
{9}
10 км 10/10 600 м
[Sc]
-0.4 -1.9 90 -4 -4 тепло 992.9 973.5
09 17.02 З 2-7
{9}
10 км 10/10 600 м
[Sc]
+0.7 -2.3 80 -3 -3 тепло 990.2 971.1
12 17.02 СЗ 2-6
{8}
10 км в посл. час снег 9/9 600 м
[Sc]
+1.8 -2.3 74 -1 -1 тепло 989.0 969.9
15 17.02 СЗ 3-6
{9}
10 км 8/8 600 м
[Sc]
+1.2 -5.4 61 -3 -3 тепло 989.3 970.2 +2.2 0.0
18 17.02 СЗ 3-7
{9}
10 км слаб. снег 10/10 300 м
[Sc]
-0.4 -3.8 78 -5 -5 тепло 989.8 970.5
21 17.02 СЗ 3-7
{9}
4000 м слаб. снег 10/10 300 м
[Sc]
-1.0 -2.3 91 -6 -6 тепло 990.1 970.8
00 18.02 СЗ 5-13
{14}
10 км слаб. снег 10/10 600 м
[Sc]
-0.4 -3.4 80 -6 -6 тепло 992.3 972.9
03 18.02 СЗ 4-10
{14}
10 км слаб. снег 8/8 300 м
[Sc]
-1.9 -5.0 79 -8 -8 по сезону 995.3 975.8 -1.9 3 59
06 18.02 С 3-12
{16}
10 км слаб. снег 9/9 600 м
[Sc]
-2.9 -10.0 58 -8 -7 по сезону 999.8 980.2 -3.1
09 18.02 СЗ 5-12
{18}
10 км метель {снег} 9/9 600 м
[Sc]
-3.7 -11.3 56 -10 -10 по сезону 1003.7 983.9
12 18.02 С 6-16
{17}
10 км метель {снег} ясно -3.7 -16.6 36 -10 -10 по сезону 1007.2 987.4
15 18.02 С 5-13
{16}
10 км метель 1/0
[Ac trans]
-5.2 -17.0 39 -12 -12 по сезону 1011.5 991.5 -1.7 0.0
18 18.02 С 4-9
{15}
10 км сильный позёмок ясно -6.9 -16.8 45 -13 -13 по сезону 1014.9 994.6
21 18.02 С 3-6
{11}
10 км ясно -8.7 -14.6 62 -14 -14 по сезону 1017.3 996.9
00 19.02 СЗ 1-5
{8}
10 км ясно -10.1 -14.5 70 -12 -12 по сезону 1018.9 998.3
03 19.02 СЗ 1-2
{5}
10 км ясно -11.6 -14.4 80 -14 -14 по сезону 1019.7 999.0 -12.0 57
06 19.02 З 1-3
{3}
10 км 8/0
[Ci]
-11.4 -14.2 80 -14 -13 по сезону 1019.2 998.5 -12.3
09 19.02 ЮЗ 2-6
{7}
10 км 9/8 1000 м
[Sc As op]
-8.3 -14.6 60 -13 -12 по сезону 1016.0 995.6
12 19.02 ЮЗ 3-8
{10}
10 км 10/3 1000 м
[Sc As op]
-4.9 -12.2 57 -10 -10 по сезону 1010.2 990.2
15 19.02 З 2-5
{8}
10 км 10/0
[As op]
-3.4 -10.8 57 -7 -7 по сезону 1009.3 989.4 -3.0
18 19.02 З 2-5
{6}
10 км 10/3 600 м
[Sc As op]
-2.1 -10.2 54 -5 -5 тепло 1008.7 988.9
21 19.02 ЮЗ 1-4
{5}
10 км 9/0
[As op]
-1.5 -9.7 54 -3 -3 тепло 1007.9 988.1
00 20.02 ЮЗ 2-5
{5}
10 км 10/8 1000 м
[Sc As op]
-2.0 -8.7 60 -5 -5 тепло 1006.6 986.9
03 20.02 ЮЗ 2-7
{7}
10 км 3/0
[As op]
-4.1 -10.9 59 -8 -8 по сезону 1004.1 984.2 -4.1 57
06 20.02 Ю 2-6
{9}
10 км 10/8 600 м
[Sc As op]
-3.4 -8.5 68 -7 -7 тепло 1001.9 982.2 -4.2
09 20.02 ЮЗ 2-6
{8}
10 км 10/8 600 м
[Sc As op]
-2.7 -6.1 77 -7 -6 по сезону 1000.5 980.9
12 20.02 ЮЗ 2-5
{9}
10 км 10/10 600 м
[Sc]
-2.1 -3.6 89 -6 -6 по сезону 1000.0 980.4
15 20.02 ЮЗ 2-6
{7}
10 км 9/9 300 м
[Sc]
-0.8 -2.7 87 -5 -5 тепло 999.7 980.2 -0.8
18 20.02 ЮЗ 1-4
{9}
10 км 9/9 300 м
[Sc]
-0.1 -2.1 86 -2 -2 тепло 999.0 979.5
21 20.02 ЮЗ 2-5
{9}
10 км 10/10 600 м
[Sc]
-0.4 -2.5 86 -4 -4 тепло 998.3 978.6
00 21.02 Ю 2-6
{8}
10 км 10/10 600 м
[Sc]
-0.4 -1.6 92 -4 -4 тепло 997.4 977.7
03 21.02 Ю 2-5
{7}
4000 м слаб. снег 10/10 300 м
[Frnb]
-0.1 -0.7 96 -4 -4 тепло 995.7 976.3 -0.6 0.0 57
06 21.02 Ю 2-6
{6}
4000 м слаб. ливневой снег 10/10 200 м
[Cb cap]
+0.3 -0.3 96 -3 -3 тепло 995.0 975.7
09 21.02 Ю 2-5
{7}
4000 м слаб. снег 10/10 300 м
[Frnb]
+1.0 +0.2 94 -3 -3 тепло 994.5 975.3
12 21.02 Ю 1-3
{6}
4000 м слаб. снег 10/10 300 м
[Frnb]
+1.0 -0.1 92 -1 -1 тепло 994.5 975.1
15 21.02 Ю 2-5
{5}
4000 м слаб. снег 10/10 200 м
[Frnb]
+0.6 +0.1 96 -3 -3 тепло 995.0 975.7 +1.4 1
18 21.02 штиль 0
{5}
4000 м слаб. снег 10/10 200 м
[Frnb]
+0.4 +0.1 98 -1 -1 тепло 995.3 976.0
21 21.02 штиль 0
{2}
4000 м слаб. снег 10/10 200 м
[Frnb Ns]
0.0 -0.3 98 -1 -1 тепло 995.5 976.2
00 22.02 ЮЗ 1-2
{2}
500 м ливневой снег [диам. отлож. мокр. снега 30 мм] 10/10 200 м
[Cb cap]
-0.5 -0.5 100 -3 -3 тепло 995.8 976.4
03 22.02 С 4-8
{10}
2000 м снег {ливн. осадки} [диам. отлож. мокр. снега 3 мм] 10/10 200 м
[Frnb]
-2.7 -3.4 95 -9 -9 по сезону 997.4 977.8 -2.7 11 69
06 22.02 С 4-9
{10}
4000 м слаб. снег [диам. отлож. мокр. снега 3 мм] 10/10 200 м
[Frnb]
-7.0 -9.1 85 -14 -14 по сезону 1001.3 981.3 -7.0
09 22.02 С 3-9
{11}
4000 м слаб. снег [диам. отлож. мокр. снега 3 мм] 10/10 300 м
[Frnb]
-7.9 -11.0 78 -14 -14 по сезону 1004.8 984.7
12 22.02 С 3-10
{11}
2000 м снег {ливн. осадки} [диам. отлож. мокр. снега 2 мм] 10/10 200 м
[Frnb]
-7.9 -10.6 81 -14 -14 прохладно 1008.7 988.5
15 22.02 С 3-10
{11}
4000 м снег [диам. отлож. мокр. снега 2 мм] 10/10 200 м
[Frnb]
-8.9 -11.8 79 -15 -15 прохладно 1013.3 992.9 -2.5 2
18 22.02 С 3-10
{11}
4000 м слаб. снег [диам. отлож. мокр. снега 2 мм] 10/10 200 м
[Frnb]
-9.7 -12.8 78 -16 -16 прохладно 1017.4 996.9
21 22.02 С 3-9
{10}
4000 м слаб. снег [диам. отлож. мокр. снега 1 мм] 10/10 200 м
[Frnb]
-10.6 -14.2 75 -17 -17 прохладно 1020.5 999.9
00 23.02 С 2-8
{9}
10 км в посл. час снег [диам. отлож. мокр. снега 1 мм] 10/10 600 м
[Sc]
-11.7 -16.1 70 -16 -16 прохладно 1023.2 1002.4
03 23.02 С 2-5
{8}
10 км [диам. отлож. мокр. снега 1 мм] ясно -13.8 -17.3 75 -19 -19 холодно 1025.6 1004.6 -13.9 0.7 67
06 23.02 СЗ 2-4
{6}
10 км [диам. отлож. мокр. снега 1 мм] ясно -14.4 -17.9 75 -19 -18 холодно 1027.3 1006.3 -16.9
09 23.02 СЗ 1-5
{5}
10 км ясно -11.2 -18.5 55 -13 -9 по сезону 1028.1 1007.3
12 23.02 СЗ 2-6
{6}
10 км 4/0
[Ci fib]
-8.1 -19.1 41 -12 -11 прохладно 1027.6 1007.0
15 23.02 З 2-4
{6}
10 км 6/0
[Ci fib]
-8.7 -17.9 47 -13 -13 прохладно 1026.7 1006.1 -7.2
18 23.02 З 2-4
{5}
10 км 6/0
[Ci fib]
-9.7 -19.0 47 -14 -14 прохладно 1026.3 1005.6
21 23.02 З 1-3
{5}
10 км 9/0
[Ci fib]
-10.0 -15.9 62 -12 -12 по сезону 1025.1 1004.4
00 24.02 З 1-4
{4}
10 км 10/0
[Cs]
-10.1 -14.5 70 -12 -12 по сезону 1024.2 1003.5

 

Местоположение метеостанции Нижний Новгород (Нижегородская область, Россия): широта 56.27 долгота 44.00 высота над уровнем моря 157 м.

В архиве по умолчанию представлена погода в Нижнем Новгороде за последнюю неделю. Архивные данные за месяц целиком и за предыдущие месяцы, начиная с января 2011 года, Вы можете получить, выбрав интересующий диапазон дат из раскрывающегося списка и нажав кнопку "Ввод!".


*Определитесь, кто Вы:
робот инопланетянин человек

Внимание! Время в таблицах - всемирное. Для получения местного времени необходимо прибавить поправку, которая равна 3 ч.

Смотрите также архив погоды в соседних городах и на ближайших метеорологических станциях:

Погода в Нижнем Новгороде аэропорт (Нижегородская область, Россия) (15 км)
Погода в Дальнем Константиново (Нижегородская область, Россия) (53 км)
Погода в Балахне (Нижегородская область, Россия) (54 км)
Погода в Волжской ГМО (Нижегородская область, Россия) (57 км)
Погода в Семенове (Нижегородская область, Россия) (60 км)
Погода в Павлово (Нижегородская область, Россия) (70 км)
Погода в Лысково (Нижегородская область, Россия) (70 км)
Погода в Арзамасе (Нижегородская область, Россия) (101 км)
Погода в Воскресенском (Нижегородская область, Россия) (106 км)
Погода в Вязниках (Владимирская область, Россия) (113 км)

Пояснения к столбцам:

Ветер - указаны скорость ветра в м/с - средняя за 10 мин, порывы в срок и между сроками (в фигурных скобках) и направление, откуда дует ветер: С - северный, СВ - северо-восточный, В - восточный, ЮВ - юго-восточный, Ю - южный, ЮЗ - юго-западный, З - западный, СЗ - северо-западный.
Видимость - горизонтальная дальность видимости в метрах или километрах. При видимости от 1 до 10 км при отсутствии осадков обычно наблюдается дымка, при ухудшении видимости до 1 км и менее - туман. В сухую погоду видимость может ухудшаться дымом, пылью или мглою.
Явления - указаны атмосферные явления, наблюдавшиеся в срок или в последний час перед сроком; фигурными скобками обозначены явления, наблюдавшиеся между сроками (за 1-3 часа до срока); квадратными скобками обозначены град или гололедные отложения с указанием их диаметра в мм.
Облачность - указаны через наклонную черту общая и нижняя облачность в баллах и высота нижней границы облаков в метрах; квадратными скобками обозначены формы облаков: Ci - перистые, Cs - перисто-слоистые, Cc - перисто-кучевые, Ac - высококучевые, As - высокослоистые, Sc - слоисто-кучевые, Ns - слоисто-дождевые, Cu - кучевые, Cb - кучево-дождевые. Подробнее классификацию облаков см. в Атласе облаков (PDF).
T - Температура воздуха - температура, измеренная на высоте 2 м над землей.
Td - Температура точки росы - температура, при понижении до которой содержащийся в воздухе водяной пар достигнет насыщения.
f - Относительная влажность воздуха - влажноcть воздуха, измеренная на высоте 2 м над землей.
Te - Эффективная температура - температура, которую ощущает одетый по сезону человек в тени. Характеристика душности погоды. При расчете учитывается влияние влажности воздуха и скорости ветра на теплоощущения человека.
Tes - Эффективная температура на солнце - температура, которую ощущает человек, с поправкой на солнечный нагрев. Характеристика знойности погоды. Зависит от высоты солнца над горизонтом, облачности и скорости ветра. Ночью, в пасмурную погоду, а также при ветре 12 м/с и более поправка равна нулю.
P - Атмосферное давление - приведенное к уровню моря атмосферное давление.
Po - Атмосферное давление - измеренное на уровне метеостанции атмосферное давление.
Tmin - Минимальная температура - минимум температуры воздуха на высоте 2 м над землей.
Tmax - Максимальная температура - максимум температуры воздуха на высоте 2 м над землей.
R - Количество осадков - Количество выпавших осадков за период времени, мм. При наведении курсора мыши на число - период времени, за который выпало указанное количество осадков.
R24 - Количество осадков - Количество выпавших осадков за 24 часа, мм.
S - Снежный покров - Высота снежного покрова, см. При наведении курсора мыши на число - состояние снежного покрова и степень покрытия местности в баллах.